DW7888 Weather Reports


time (UTC)temp
C
wind
direction
speed
KPH
gust
KPH
rain 1hr
cm
rain 24hr
cm
rain mn
cm
humidity
%
barometer
mb
20260903210010 35 63 0.0 3.2 0.00 0.00 0.00 50 1014.6
20260903205514 35 5 0.0 3.2 0.00 0.00 0.00 52 1014.5
20260903205020 35 130 0.0 4.8 0.00 0.00 0.00 55 1014.5
20260903204511 35 5 0.0 9.7 0.00 0.00 0.00 55 1014.6
20260903204012 35 339 3.2 8.0 0.00 0.00 0.00 55 1014.7
20260903203514 35 318 0.0 3.2 0.00 0.00 0.00 55 1014.7
20260903203010 35 43 0.0 3.2 0.00 0.00 0.00 54 1014.7
20260903202511 35 349 0.0 6.4 0.00 0.00 0.00 55 1014.8
20260903202018 35 32 1.6 6.4 0.00 0.00 0.00 56 1014.9
20260903201513 35 329 0.0 6.4 0.00 0.00 0.00 56 1015.1
20260903201019 35 341 0.0 6.4 0.00 0.00 0.00 55 1015.1
20260903200517 35 9 1.6 4.8 0.00 0.00 0.00 56 1015.1
20260903200012 35 335 0.0 4.8 0.00 0.00 0.00 55 1015.3
20260903195515 34 19 1.6 4.8 0.00 0.00 0.00 56 1015.4
20260903195019 34 336 0.0 4.8 0.00 0.00 0.00 57 1015.4
20260903194514 35 346 1.6 6.4 0.00 0.00 0.00 57 1015.4
20260903194020 35 355 0.0 6.4 0.00 0.00 0.00 57 1015.5
20260903193517 35 28 3.2 6.4 0.00 0.00 0.00 56 1015.5
20260903193018 35 296 0.0 3.2 0.00 0.00 0.00 56 1015.6
20260903192513 35 355 0.0 4.8 0.00 0.00 0.00 55 1015.5
20260903192017 35 286 0.0 6.4 0.00 0.00 0.00 52 1015.6
20260903191540 35 340 0.0 6.4 0.00 0.00 0.00 52 1015.6
20260903191017 35 335 0.0 4.8 0.00 0.00 0.00 52 1015.7
20260903190518 35 304 0.0 4.8 0.00 0.00 0.00 54 1015.8
20260903190016 35 116 0.0 6.4 0.00 0.00 0.00 55 1015.9
20260903185513 35 340 0.0 6.4 0.00 0.00 0.00 56 1016.0
20260903185017 35 355 1.6 6.4 0.00 0.00 0.00 56 1016.1
20260903184520 35 317 0.0 4.8 0.00 0.00 0.00 56 1016.1
20260903184016 35 329 0.0 4.8 0.00 0.00 0.00 54 1016.2
20260903183508 35 32 0.0 4.8 0.00 0.00 0.00 61 1016.2
20260903183027 35 355 0.0 4.8 0.00 0.00 0.00 57 1016.2
20260903182514 35 30 0.0 8.0 0.00 0.00 0.00 59 1016.2
20260903182006 34 301 0.0 8.0 0.00 0.00 0.00 57 1016.2
20260903181519 34 349 0.0 4.8 0.00 0.00 0.00 59 1016.4
20260903181014 35 180 0.0 4.8 0.00 0.00 0.00 59 1016.6
20260903180506 34 143 0.0 6.4 0.00 0.00 0.00 60 1016.7
20260903180031 33 30 0.0 6.4 0.00 0.00 0.00 60 1016.8
20260903175517 33 9 1.6 6.4 0.00 0.00 0.00 60 1016.8
20260903175007 34 319 0.0 4.8 0.00 0.00 0.00 59 1016.7
20260903174525 33 340 1.6 4.8 0.00 0.00 0.00 63 1016.8
20260903174015 33 336 1.6 4.8 0.00 0.00 0.00 63 1016.7
20260903173511 33 301 1.6 8.0 0.00 0.00 0.00 63 1016.8
20260903173025 33 5 3.2 8.0 0.00 0.00 0.00 63 1016.8
20260903172517 33 20 1.6 6.4 0.00 0.00 0.00 65 1016.8
20260903172010 33 337 0.0 8.0 0.00 0.00 0.00 65 1016.9
20260903171535 32 74 1.6 8.0 0.00 0.00 0.00 67 1016.8
20260903171019 33 316 1.6 6.4 0.00 0.00 0.00 65 1016.9
20260903170510 33 46 0.0 4.8 0.00 0.00 0.00 65 1016.9
20260903170031 33 31 1.6 4.8 0.00 0.00 0.00 66 1017.0
20260903165517 33 305 0.0 8.0 0.00 0.00 0.00 65 1017.0
20260903165014 32 332 0.0 8.0 0.00 0.00 0.00 68 1017.2
20260903164526 32 351 0.0 6.4 0.00 0.00 0.00 67 1017.3
20260903164017 32 334 1.6 8.0 0.00 0.00 0.00 65 1017.4
20260903163515 32 5 0.0 8.0 0.00 0.00 0.00 67 1017.4
20260903163029 32 31 0.0 6.4 0.00 0.00 0.00 66 1017.4
20260903162514 32 13 0.0 4.8 0.00 0.00 0.00 69 1017.5
20260903162011 32 160 0.0 4.8 0.00 0.00 0.00 70 1017.6
20260903161528 31 47 0.0 6.4 0.00 0.00 0.00 69 1017.6
20260903161019 32 36 1.6 6.4 0.00 0.00 0.00 68 1017.6
20260903160513 32 57 1.6 6.4 0.00 0.00 0.00 68 1017.7
20260903160026 31 5 0.0 4.8 0.00 0.00 0.00 70 1017.7
20260903155518 32 337 1.6 4.8 0.00 0.00 0.00 70 1017.8
20260903155011 31 25 0.0 4.8 0.00 0.00 0.00 70 1017.7
20260903154507 31 342 0.0 4.8 0.00 0.00 0.00 69 1017.8
20260903154008 31 108 1.6 9.7 0.00 0.00 0.00 68 1017.8
20260903153512 31 267 3.2 9.7 0.00 0.00 0.00 72 1017.9
20260903153003 31 311 0.0 8.0 0.00 0.00 0.00 71 1017.9
20260903152507 31 321 0.0 4.8 0.00 0.00 0.00 71 1017.9
20260903152014 31 288 0.0 8.0 0.00 0.00 0.00 73 1018.0
20260903151510 30 347 1.6 8.0 0.00 0.00 0.00 75 1017.9
20260903151009 30 58 1.6 6.4 0.00 0.00 0.00 74 1018.0
20260903150514 30 310 0.0 3.2 0.00 0.00 0.00 75 1018.0
20260903150014 30 355 0.0 0.0 0.00 0.00 0.00 75 1018.0
20260903145507 30 282 0.0 0.0 0.00 0.00 0.00 76 1017.9
20260903145017 30 355 0.0 1.6 0.00 0.00 0.00 75 1017.8
20260903144513 29 317 0.0 6.4 0.00 0.00 0.00 76 1017.8
20260903144010 29 12 0.0 6.4 0.00 0.00 0.00 77 1017.6
20260903143513 29 317 3.2 6.4 0.00 0.00 0.00 77 1017.8
20260903143007 28 5 0.0 4.8 0.00 0.00 0.00 77 1017.5
20260903142512 28 5 0.0 3.2 0.00 0.00 0.00 78 1017.4
20260903142015 28 14 0.0 3.2 0.00 0.00 0.00 79 1017.4
20260903141512 28 347 0.0 3.2 0.00 0.00 0.00 78 1017.4
20260903141010 28 347 0.0 1.6 0.00 0.00 0.00 78 1017.4
20260903140514 28 240 0.0 3.2 0.00 0.00 0.00 80 1017.3
20260903140012 28 355 0.0 3.2 0.00 0.00 0.00 79 1017.4
20260903135510 28 311 0.0 0.0 0.00 0.00 0.00 79 1017.4
20260903135016 27 5 0.0 0.0 0.00 0.00 0.00 80 1017.4
20260903134511 27 344 0.0 0.0 0.00 0.00 0.00 81 1017.4
20260903134012 27 344 0.0 0.0 0.00 0.00 0.00 81 1017.4
20260903133504 27 355 0.0 0.0 0.00 0.00 0.00 82 1017.5
20260903133013 27 346 0.0 0.0 0.00 0.00 0.00 85 1017.4
20260903132517 26 69 0.0 0.0 0.00 0.00 0.00 85 1017.5
20260903132006 26 15 0.0 0.0 0.00 0.00 0.00 87 1017.6
20260903131516 26 20 0.0 0.0 0.00 0.00 0.00 88 1017.7
20260903131012 26 20 0.0 0.0 0.00 0.00 0.00 90 1017.7
20260903130503 25 41 0.0 0.0 0.00 0.00 0.00 90 1017.7
20260903130013 25 41 0.0 0.0 0.00 0.00 0.00 91 1017.9
20260903125515 25 34 0.0 0.0 0.00 0.00 0.00 92 1018.0
20260903125004 25 344 0.0 0.0 0.00 0.00 0.00 93 1018.0
20260903124514 24 344 0.0 0.0 0.00 0.00 0.00 94 1018.0
20260903124013 24 344 0.0 0.0 0.00 0.00 0.00 95 1018.0
20260903123511 23 344 0.0 0.0 0.00 0.00 0.00 95 1018.0
20260903123015 23 344 0.0 0.0 0.00 0.00 0.00 95 1017.9
20260903122517 23 344 0.0 0.0 0.00 0.00 0.00 96 1017.9
20260903122006 23 344 0.0 0.0 0.00 0.00 0.00 96 1017.9
20260903121526 23 344 0.0 0.0 0.00 0.00 0.00 96 1017.9
20260903121016 23 344 0.0 0.0 0.00 0.00 0.00 96 1017.9
20260903120506 23 344 0.0 0.0 0.00 0.00 0.00 96 1017.9
20260903120022 23 345 0.0 0.0 0.00 0.00 0.00 96 1017.9
20260903115516 22 344 0.0 0.0 0.00 0.00 0.00 96 1017.9
20260903115007 22 345 0.0 0.0 0.00 0.00 0.00 96 1017.8
20260903114520 22 344 0.0 0.0 0.00 0.00 0.00 96 1017.8
20260903114013 22 344 0.0 0.0 0.00 0.00 0.00 96 1017.7
20260903113507 22 344 0.0 0.0 0.00 0.00 0.00 96 1017.7
20260903113019 22 344 0.0 0.0 0.00 0.00 0.00 96 1017.7
20260903112517 22 345 0.0 0.0 0.00 0.00 0.00 96 1017.5
20260903112009 22 345 0.0 0.0 0.00 0.00 0.00 96 1017.5
20260903111523 22 344 0.0 0.0 0.00 0.00 0.00 96 1017.6
20260903111017 22 345 0.0 0.0 0.00 0.00 0.00 96 1017.5
20260903110510 22 344 0.0 0.0 0.00 0.00 0.00 96 1017.4
20260903110023 22 344 0.0 0.0 0.00 0.00 0.00 96 1017.4
20260903105518 22 344 0.0 0.0 0.00 0.00 0.00 95 1017.4
20260903105012 22 344 0.0 0.0 0.00 0.00 0.00 96 1017.4
20260903104526 22 344 0.0 0.0 0.00 0.00 0.00 96 1017.3
20260903104017 22 344 0.0 0.0 0.00 0.00 0.00 96 1017.3
20260903103511 22 344 0.0 0.0 0.00 0.00 0.00 96 1017.3
20260903103027 22 344 0.0 1.6 0.00 0.00 0.00 95 1017.4
20260903102514 22 345 0.0 1.6 0.00 0.00 0.00 95 1017.5
20260903102014 22 341 0.0 0.0 0.00 0.00 0.00 95 1017.4
20260903101526 22 59 0.0 0.0 0.00 0.00 0.00 95 1017.3
20260903101018 22 59 0.0 0.0 0.00 0.00 0.00 95 1017.3
20260903100510 22 59 0.0 0.0 0.00 0.00 0.00 95 1017.2
20260903100027 22 59 0.0 0.0 0.00 0.00 0.00 95 1017.2
20260903095517 22 59 0.0 0.0 0.00 0.00 0.00 95 1017.2
20260903095019 22 59 0.0 0.0 0.00 0.00 0.00 95 1017.2
20260903094504 22 59 0.0 0.0 0.00 0.00 0.00 95 1017.2
20260903094012 22 59 0.0 0.0 0.00 0.00 0.00 95 1017.3
20260903093512 22 59 0.0 0.0 0.00 0.00 0.00 95 1017.3
20260903093003 22 59 0.0 0.0 0.00 0.00 0.00 95 1017.3
20260903092513 22 59 0.0 0.0 0.00 0.00 0.00 95 1017.2
20260903092015 22 59 0.0 0.0 0.00 0.00 0.00 95 1017.2
20260903091504 22 59 0.0 0.0 0.00 0.00 0.00 95 1017.1
20260903091007 22 59 0.0 0.0 0.00 0.00 0.00 95 1017.0
20260903090515 22 59 0.0 0.0 0.00 0.00 0.00 95 1016.9
20260903090005 22 59 0.0 0.0 0.00 0.00 0.00 95 1016.8
20260903085509 22 59 0.0 0.0 0.00 0.00 0.00 95 1016.8
20260903085011 23 59 0.0 0.0 0.00 0.00 0.00 95 1016.7
20260903084504 23 59 0.0 0.0 0.00 0.00 0.00 95 1016.7
20260903084010 23 59 0.0 0.0 0.00 0.00 0.00 95 1016.8
20260903083515 23 59 0.0 0.0 0.00 0.00 0.00 95 1016.8
20260903083008 23 59 0.0 0.0 0.00 0.00 0.00 95 1016.7
20260903082509 23 59 0.0 0.0 0.00 0.00 0.00 95 1016.6
20260903082003 23 59 0.0 0.0 0.00 0.00 0.00 95 1016.8
20260903081506 23 59 0.0 0.0 0.00 0.00 0.00 95 1016.8
20260903081014 23 59 0.0 0.0 0.00 0.00 0.00 95 1017.0
20260903080504 23 59 0.0 0.0 0.00 0.00 0.00 95 1017.1
20260903080008 23 59 0.0 0.0 0.00 0.00 0.00 95 1017.1
20260903075513 23 59 0.0 0.0 0.00 0.00 0.00 95 1017.0
20260903075003 23 59 0.0 0.0 0.00 0.00 0.00 95 1017.0
20260903074511 23 59 0.0 0.0 0.00 0.00 0.00 95 1017.1
20260903074010 23 59 0.0 0.0 0.00 0.00 0.00 95 1017.2
20260903073504 23 59 0.0 0.0 0.00 0.00 0.00 95 1017.0
20260903073011 23 59 0.0 0.0 0.00 0.00 0.00 94 1016.9
20260903072513 23 59 0.0 0.0 0.00 0.00 0.00 94 1016.9
20260903072003 23 59 0.0 0.0 0.00 0.00 0.00 94 1017.0
20260903071509 23 59 0.0 0.0 0.00 0.00 0.00 94 1017.1
20260903071016 23 59 0.0 0.0 0.00 0.00 0.00 94 1017.2
20260903070508 23 59 0.0 0.0 0.00 0.00 0.00 94 1017.2
20260903070016 23 59 0.0 0.0 0.00 0.00 0.00 94 1017.3
20260903065512 23 59 0.0 0.0 0.00 0.00 0.00 94 1017.2
20260903065003 23 59 0.0 0.0 0.00 0.00 0.00 94 1017.1
20260903064511 23 59 0.0 0.0 0.00 0.00 0.00 94 1017.0
20260903064011 23 59 0.0 0.0 0.00 0.00 0.00 94 1017.1
20260903063504 23 59 0.0 0.0 0.00 0.00 0.00 94 1017.2
20260903063011 23 59 0.0 0.0 0.00 0.00 0.00 94 1017.3
20260903062514 23 59 0.0 0.0 0.00 0.00 0.00 94 1017.3
20260903062006 23 59 0.0 0.0 0.00 0.00 0.00 94 1017.3
20260903061516 23 59 0.0 0.0 0.00 0.00 0.00 94 1017.4
20260903061015 23 59 0.0 0.0 0.00 0.00 0.00 94 1017.4
20260903060506 23 355 0.0 0.0 0.00 0.00 0.00 94 1017.2
20260903060016 23 355 0.0 0.0 0.00 0.00 0.00 94 1017.3
20260903055516 23 355 0.0 0.0 0.00 0.00 0.00 94 1017.4
20260903055004 23 355 0.0 0.0 0.00 0.00 0.00 94 1017.5
20260903054518 23 355 0.0 0.0 0.00 0.00 0.00 93 1017.6
20260903054014 23 355 0.0 0.0 0.00 0.00 0.00 93 1017.7
20260903053507 23 355 0.0 0.0 0.00 0.00 0.00 93 1017.8
20260903053016 23 355 0.0 0.0 0.00 0.00 0.00 93 1017.9
20260903052516 23 355 0.0 0.0 0.00 0.00 0.00 93 1017.8
20260903052006 23 355 0.0 0.0 0.00 0.00 0.00 93 1017.7
20260903051518 23 355 0.0 0.0 0.00 0.00 0.00 93 1017.6
20260903051014 23 355 0.0 0.0 0.00 0.00 0.00 93 1017.7
20260903050506 23 355 0.0 0.0 0.00 0.00 0.00 93 1017.7
20260903050025 24 355 0.0 0.0 0.00 0.00 0.00 93 1017.7
20260903045516 24 355 0.0 0.0 0.00 0.00 0.00 93 1017.6
20260903045007 24 355 0.0 0.0 0.00 0.00 0.00 93 1017.6
20260903044519 24 355 0.0 0.0 0.00 0.00 0.00 93 1017.7
20260903044015 24 355 0.0 0.0 0.00 0.00 0.00 93 1017.6
20260903043510 24 355 0.0 0.0 0.00 0.00 0.00 93 1017.7
20260903043020 24 355 0.0 0.0 0.00 0.00 0.00 93 1017.6
20260903042516 24 355 0.0 0.0 0.00 0.00 0.00 93 1017.6
20260903042008 24 355 0.0 0.0 0.00 0.00 0.00 93 1017.5
20260903041532 24 355 0.0 0.0 0.00 0.00 0.00 93 1017.4
20260903041017 24 355 0.0 0.0 0.00 0.00 0.00 93 1017.4
20260903040510 24 355 0.0 0.0 0.00 0.00 0.00 93 1017.5
20260903040023 24 355 0.0 0.0 0.00 0.00 0.00 93 1017.5
20260903035519 24 355 0.0 0.0 0.00 0.00 0.00 93 1017.4
20260903035011 24 355 0.0 0.0 0.00 0.00 0.00 93 1017.4
20260903034525 24 116 0.0 0.0 0.00 0.00 0.00 93 1017.4
20260903034017 24 116 0.0 0.0 0.00 0.00 0.00 93 1017.3
20260903033511 24 116 0.0 0.0 0.00 0.00 0.00 93 1017.2
20260903033026 24 116 0.0 0.0 0.00 0.00 0.00 93 1017.2
20260903032518 24 116 0.0 0.0 0.00 0.00 0.00 92 1017.3
20260903032010 25 116 0.0 0.0 0.00 0.00 0.00 92 1017.2
20260903031528 25 116 0.0 0.0 0.00 0.00 0.00 92 1017.2
20260903031015 25 116 0.0 0.0 0.00 0.00 0.00 92 1017.2
20260903030515 25 116 0.0 0.0 0.00 0.00 0.00 92 1017.3
20260903030035 25 116 0.0 0.0 0.00 0.00 0.00 92 1017.4
20260903025521 25 116 0.0 0.0 0.00 0.00 0.00 92 1017.4
20260903025013 25 116 0.0 1.6 0.00 0.00 0.00 91 1017.4
20260903024527 25 116 0.0 1.6 0.00 0.00 0.00 91 1017.3
20260903024013 25 116 0.0 0.0 0.00 0.00 0.00 91 1017.5
20260903023514 25 116 0.0 0.0 0.00 0.00 0.00 91 1017.5
20260903023033 25 116 0.0 0.0 0.00 0.00 0.00 91 1017.6
20260903022508 25 116 0.0 0.0 0.00 0.00 0.00 91 1017.5
20260903022013 25 116 0.0 0.0 0.00 0.00 0.00 91 1017.6
20260903021530 25 116 0.0 0.0 0.00 0.00 0.00 90 1017.7
20260903021014 25 116 0.0 0.0 0.00 0.00 0.00 90 1017.6
20260903020513 25 116 0.0 0.0 0.00 0.00 0.00 90 1017.6
20260903020038 25 116 0.0 0.0 0.00 0.00 0.00 89 1017.7
20260903015508 26 116 0.0 0.0 0.00 0.00 0.00 89 1017.7
20260903015015 26 116 0.0 0.0 0.00 0.00 0.00 89 1017.7
20260903014543 26 116 0.0 0.0 0.00 0.00 0.00 89 1017.8
20260903014009 26 116 0.0 0.0 0.00 0.00 0.00 89 1017.7
20260903013515 26 116 0.0 0.0 0.00 0.00 0.00 88 1017.8
20260903013030 26 116 0.0 0.0 0.00 0.00 0.00 88 1017.8
20260903012522 26 116 0.0 0.0 0.00 0.00 0.00 88 1017.8
20260903012017 26 116 0.0 0.0 0.00 0.00 0.00 87 1017.8
20260903011538 26 116 0.0 0.0 0.00 0.00 0.00 87 1017.7
20260903011009 26 116 0.0 1.6 0.00 0.00 0.00 87 1017.7
20260903010515 26 116 0.0 1.6 0.00 0.00 0.00 87 1017.5
20260903010039 26 116 0.0 1.6 0.00 0.00 0.00 86 1017.5
20260903005511 26 116 0.0 1.6 0.00 0.00 0.00 86 1017.4
20260903005019 26 116 0.0 1.6 0.00 0.00 0.00 85 1017.2
20260903004506 27 116 0.0 1.6 0.00 0.00 0.00 85 1017.3
20260903004003 27 116 0.0 1.6 0.00 0.00 0.00 85 1017.3
20260903003503 27 116 0.0 3.2 0.00 0.00 0.00 84 1017.3
20260903003004 27 116 0.0 3.2 0.00 0.00 0.00 84 1017.2
20260903002505 27 171 0.0 1.6 0.00 0.00 0.00 84 1017.2
20260903002005 27 171 0.0 1.6 0.00 0.00 0.00 84 1017.2
20260903001505 27 171 0.0 0.0 0.00 0.00 0.00 83 1017.4
20260903001005 27 171 0.0 4.8 0.00 0.00 0.00 83 1017.3
20260903000503 27 171 0.0 4.8 0.00 0.00 0.00 82 1017.2
20260903000003 27 178 0.0 4.8 0.00 0.00 0.00 82 1017.1
20260902235504 27 179 0.0 4.8 0.00 0.00 0.00 82 1017.2
20260902235003 27 179 0.0 6.4 0.00 0.00 0.00 81 1017.3
20260902234504 27 109 1.6 6.4 0.00 0.00 0.00 81 1017.1
20260902234003 28 202 1.6 6.4 0.00 0.00 0.00 81 1017.0
20260902233503 28 171 0.0 12.9 0.00 0.00 0.00 81 1016.9
20260902233004 28 130 1.6 12.9 0.00 0.00 0.00 80 1017.0
20260902232504 28 186 0.0 14.5 0.00 0.00 0.00 80 1017.1
20260902232003 28 190 1.6 14.5 0.00 0.00 0.00 80 1017.2
20260902231505 28 161 0.0 11.3 0.00 0.00 0.00 80 1017.4
20260902231006 28 145 1.6 9.7 0.00 0.00 0.00 79 1017.4
20260902230504 28 343 0.0 9.7 0.00 0.00 0.00 79 1017.7
20260902230002 28 196 0.0 9.7 0.00 0.00 0.00 79 1017.6
20260902225503 28 103 4.8 12.9 0.00 0.00 0.00 79 1017.3
20260902225002 28 169 1.6 14.5 0.00 0.00 0.00 78 1017.2
20260902224504 28 178 4.8 14.5 0.00 0.00 0.00 78 1017.3
20260902224003 28 170 4.8 12.9 0.00 0.00 0.00 78 1017.7
20260902223503 28 160 1.6 6.4 0.00 0.00 0.00 78 1018.0
20260902223005 28 180 1.6 6.4 0.00 0.00 0.00 78 1017.8
20260902222507 29 164 0.0 9.7 0.00 0.00 0.00 77 1017.7
20260902222004 29 128 0.0 12.9 0.00 0.00 0.00 77 1017.8
20260902221515 29 160 1.6 12.9 0.00 0.00 0.00 76 1017.9
20260902221004 29 109 3.2 11.3 0.00 0.00 0.00 76 1018.0
20260902220505 29 186 4.8 11.3 0.00 0.00 0.00 75 1018.1
20260902220006 29 121 3.2 11.3 0.00 0.00 0.00 75 1017.8
20260902215503 29 76 4.8 12.9 0.00 0.00 0.00 74 1017.9
20260902215008 30 180 3.2 17.7 0.00 0.00 0.00 73 1017.8
20260902214516 30 132 4.8 17.7 0.00 0.00 0.00 71 1017.9
20260902214002 30 233 6.4 16.1 0.00 0.00 0.00 70 1017.6
20260902213502 31 149 6.4 16.1 0.00 0.00 0.00 68 1017.7
20260902213006 31 185 4.8 12.9 0.00 0.00 0.00 64 1017.7
20260902212503 31 117 4.8 22.5 0.00 0.00 0.00 63 1017.6
20260902212005 31 122 1.6 22.5 0.00 0.00 0.00 66 1017.6
20260902211504 31 158 4.8 19.3 0.00 0.00 0.00 65 1017.7
20260902211005 32 119 4.8 24.1 0.00 0.00 0.00 62 1017.6
20260902210505 33 198 8.0 24.1 0.00 0.00 0.00 61 1017.4